Wind_Speed
9 10 13 12 15 15 20 15 15 12 6 9 12 16 17 21 21 21 21 21 17 20 22 26 22 22 27 26 23 19 19 19 21 18 16 18 20 22 22 26 26 23 26 29
9 15 14 14 15 16 16 15 16 16 14 15 17 21 21 21 22 22 22 24 22 19 16 25 26 23 26 29 27 26 23 23 24 24 24 24 24 26 25 25 22 22 26 28
13 11 5 10 14 13 15 16 17 18 17 14 17 23 24 22 22 21 20 19 18 18 21 24 28 27 32 30 34 27 25 28 29 28 29 28 27 27 27 25 22 23 26 28
15 15 14 13 14 13 18 14 16 18 15 21 19 26 21 20 22 14 13 15 15 11 13 24 27 32 27 26 28 29 30 31 29 27 30 31 28 27 26 24 23 23 26 27
15 14 13 15 15 13 17 17 16 16 17 21 22 20 21 11 11 12 11 14 7 7 12 18 25 30 31 28 31 31 31 30 30 28 31 30 28 25 25 24 22 25 27 28
18 16 11 14 13 15 15 15 15 18 20 22 24 22 23 20 11 15 7 4 6 7 9 12 18 28 24 21 19 22 23 27 31 29 30 24 24 24 23 22 23 27 28 29
14 19 19 17 13 12 10 13 16 16 16 15 21 21 23 15 4 6 8 4 1 4 8 16 24 28 25 21 24 27 24 23 25 27 26 23 23 21 22 20 23 27 32 35
15 15 18 12 16 13 14 10 14 15 14 22 25 6 8 9 10 9 8 7 11 13 12 15 21 23 24 26 26 28 26 23 24 23 21 21 19 21 20 20 23 28 32 37
15 13 3 5 7 12 13 18 19 19 17 21 23 25 12 9 11 8 9 11 7 15 15 17 19 26 31 29 25 27 24 22 22 21 20 18 19 18 20 21 25 28 32 37
10 18 13 10 7 12 15 14 17 15 11 14 18 19 16 12 6 1 2 1 6 14 12 13 18 20 21 23 26 27 21 19 16 15 15 16 18 18 20 24 28 29 31 34
11 14 19 16 17 12 12 13 14 17 15 13 10 6 15 15 13 5 10 8 10 12 11 17 23 24 17 18 20 18 19 13 12 12 14 16 16 18 22 25 27 32 32 36
9 13 16 18 18 17 15 17 15 15 12 18 20 25 23 10 11 9 12 15 14 20 17 17 25 26 19 18 18 16 15 13 11 13 16 16 17 19 23 24 26 27 33 38
11 9 14 19 17 19 21 21 18 18 19 22 19 22 20 18 20 19 15 13 17 18 22 14 19 24 20 18 18 16 14 15 17 18 18 19 20 22 22 22 25 31 35 36
18 16 13 20 22 17 16 12 13 17 21 23 23 25 21 17 23 15 12 15 17 18 22 18 20 27 22 21 20 19 19 20 22 19 20 21 23 22 22 23 26 33 35 34
16 16 20 24 27 29 26 24 22 22 19 20 21 23 22 21 22 24 24 21 23 19 17 24 25 29 25 24 22 22 22 23 24 21 23 23 23 19 21 23 28 34 34 32
13 19 18 27 25 30 34 28 27 27 28 30 29 32 27 27 26 24 22 22 19 19 17 16 26 26 28 26 22 23 21 23 24 23 22 24 21 19 21 25 31 34 32 33
13 14 15 26 21 29 37 28 28 30 30 31 34 32 28 26 26 22 19 17 21 20 20 14 17 24 31 26 19 20 22 24 21 23 23 21 21 20 21 28 32 31 32 33
20 15 16 26 21 23 29 25 25 27 27 26 27 22 14 7 4 7 8 12 21 21 20 18 7 20 31 28 22 21 23 22 22 23 22 19 20 20 25 30 30 30 32 31
24 21 19 25 27 31 27 21 23 22 20 15 16 14 12 13 6 14 11 10 16 25 27 21 18 18 32 26 24 23 24 20 23 22 19 18 18 20 27 29 29 31 31 32
19 25 24 23 22 17 21 12 14 13 14 15 11 10 8 9 9 15 18 19 17 19 21 16 15 19 26 22 25 24 20 21 22 16 16 16 16 22 28 27 29 29 30 31
14 16 27 26 25 23 22 22 17 12 8 9 7 3 8 9 20 26 26 27 21 17 24 19 16 18 19 23 23 22 21 20 18 14 15 13 19 25 24 26 26 28 29 28
23 20 20 24 24 25 16 19 20 13 15 8 7 8 11 16 21 23 23 23 18 14 24 26 15 14 17 19 23 19 21 18 12 13 12 12 22 22 25 25 26 27 26 26
27 28 26 19 15 16 10 10 7 10 14 15 17 9 17 23 22 21 24 25 20 11 19 31 17 15 18 15 16 19 20 8 12 12 11 15 20 23 22 24 23 24 26 27
23 19 23 26 36 33 26 17 19 15 15 20 25 33 29 27 24 25 26 25 23 12 19 24 25 19 16 17 13 16 10 13 12 10 13 12 16 24 21 21 20 22 25 27
23 25 22 26 26 27 28 25 21 24 24 25 22 26 35 34 33 35 35 38 32 31 24 34 26 22 16 19 17 13 12 11 10 13 20 22 23 21 19 18 21 25 29 32
24 26 27 33 30 30 32 33 33 34 33 33 36 41 38 37 37 36 35 35 33 28 23 28 30 22 20 17 14 12 11 9 10 12 13 20 23 19 15 17 21 25 28 34
Wind_Direction
245 247 246 248 247 263 281 295 294 299 312 280 273 274 271 268 266 261 262 254 246 251 253 237 246 245 250 255 253 257 259 256 268 273 273 282 290 294 302 299 298 302 301 310
239 252 252 256 260 263 267 272 270 278 277 272 276 277 276 270 260 254 262 258 255 251 245 240 234 255 259 250 256 257 254 260 259 271 279 280 286 291 293 299 297 298 305 309
240 244 278 263 265 265 261 264 272 280 284 284 278 277 273 261 253 258 249 253 257 258 241 238 229 251 262 257 249 257 257 257 259 260 267 272 278 284 289 298 298 302 305 309
254 260 269 269 268 261 264 263 267 275 281 277 279 292 286 277 232 240 250 244 228 245 243 220 234 253 258 253 249 251 252 253 261 262 267 269 270 276 282 293 294 299 304 309
256 256 266 263 265 262 268 272 283 281 283 281 277 274 277 288 225 222 255 246 180 206 219 237 251 255 259 251 246 251 257 253 256 257 262 268 263 268 280 290 298 300 308 311
256 254 260 264 268 264 269 267 269 276 273 268 266 258 271 272 300 233 221 207 205 219 225 230 251 265 273 276 270 271 266 258 253 257 259 258 254 268 280 291 296 305 308 310
257 250 249 250 262 260 262 260 263 261 240 245 256 239 252 260 346 218 235 250 264 239 224 244 244 249 264 278 278 278 276 269 262 258 257 250 257 270 282 289 297 303 310 316
285 291 233 236 242 256 244 251 254 302 304 322 319 263 263 220 260 273 267 282 281 276 270 276 261 275 286 286 277 281 281 282 267 256 250 251 261 273 284 288 300 306 313 317
274 282 265 256 266 243 260 259 259 273 287 293 292 296 303 282 246 255 254 261 257 276 260 251 271 279 280 279 283 280 278 265 259 254 253 259 266 276 286 294 301 309 313 315
257 289 283 276 263 263 251 260 262 250 258 271 275 287 32 23 44 291 227 265 289 323 238 279 289 301 296 281 281 271 274 261 257 257 262 269 278 288 297 303 305 311 313 312
280 275 271 276 253 269 249 241 238 263 284 308 309 357 30 11 233 281 313 314 312 314 283 296 300 302 308 296 302 285 278 263 254 260 271 278 284 295 303 301 309 313 314 316
278 264 266 261 268 268 261 268 268 232 256 247 257 273 295 319 302 300 308 303 296 303 308 289 301 305 305 300 297 279 266 260 265 273 277 279 286 297 294 300 306 314 317 315
257 249 261 272 262 259 261 262 259 268 276 282 287 289 294 305 300 300 293 310 306 305 304 282 288 305 298 296 282 278 273 279 283 281 278 276 282 288 293 304 318 319 316 316
247 247 263 272 277 314 299 286 275 259 266 265 253 265 276 291 289 327 322 308 300 296 283 287 286 299 300 283 280 283 282 278 279 279 277 274 277 289 302 314 318 315 317 318
262 264 264 266 271 281 277 272 272 275 275 277 277 285 288 294 298 301 308 305 300 289 295 279 275 289 302 282 281 281 282 279 283 274 278 267 276 292 305 315 318 318 319 320
265 261 273 274 272 272 274 271 272 268 268 269 273 275 279 283 286 292 296 287 281 274 279 312 269 285 294 300 296 286 283 279 281 270 270 269 278 301 311 317 321 321 322 321
252 255 273 273 281 281 270 267 266 268 267 266 271 276 279 282 283 281 277 283 275 281 268 292 272 278 286 292 299 294 283 282 273 265 267 270 289 301 311 317 323 322 321 321
252 254 261 273 279 269 272 271 270 272 272 268 268 279 281 276 342 225 263 276 270 275 276 265 282 277 282 284 289 297 297 291 266 264 266 277 291 302 312 320 324 320 320 323
244 246 257 255 260 266 274 277 280 285 275 271 292 268 273 269 238 265 274 290 290 282 282 273 243 274 271 283 291 299 297 284 264 260 271 287 288 305 316 323 320 319 323 322
235 244 238 253 267 278 278 264 312 283 257 252 260 252 272 273 251 274 276 278 279 290 280 278 262 252 270 285 292 300 297 280 261 265 282 279 298 317 318 319 316 322 322 319
226 232 232 246 256 272 275 279 305 276 248 245 223 293 290 242 243 248 265 279 292 315 292 291 280 281 288 278 292 305 295 278 258 274 271 294 316 312 318 315 319 321 319 323
259 258 244 242 252 266 281 269 283 261 264 293 318 298 281 278 272 267 269 273 294 327 318 292 293 304 296 288 291 301 291 265 263 270 273 299 304 313 314 318 320 319 320 323
254 251 257 256 242 237 276 267 280 298 302 296 289 283 278 275 283 286 294 298 305 316 320 303 311 306 302 303 296 287 285 256 261 263 274 308 318 311 315 315 318 321 333 342
259 260 261 261 259 266 269 272 270 260 292 279 284 284 279 284 284 291 300 296 302 302 294 291 308 303 305 297 282 290 253 250 262 266 296 316 313 309 314 314 323 334 337 332
260 261 266 261 264 270 261 270 273 266 266 262 261 267 272 278 287 293 291 289 292 294 291 294 300 302 295 301 286 280 238 259 270 299 320 320 315 309 307 332 341 340 333 328
259 263 270 269 261 255 257 252 248 268 261 261 259 263 272 281 286 284 282 282 286 285 277 278 286 293 299 274 278 248 246 256 274 300 306 309 309 315 327 341 340 336 326 325
Height
3175 3177 3175 3176 3176 3175 3173 3172 3170 3168 3169 3169 3169 3169 3168 3168 3168 3168 3169 3170 3170 3172 3169 3167 3168 3170 3172 3173 3174 3176 3178 3179 3178 3179 3181 3180 3179 3178 3178 3176 3174 3174 3172 3171
3175 3173 3174 3174 3174 3174 3173 3173 3172 3171 3170 3170 3168 3167 3166 3165 3164 3164 3165 3165 3166 3166 3167 3164 3166 3167 3168 3170 3171 3171 3173 3175 3175 3174 3175 3176 3175 3174 3173 3172 3171 3169 3168 3165
3173 3170 3173 3173 3172 3173 3173 3173 3171 3170 3168 3167 3167 3164 3159 3157 3158 3159 3159 3160 3159 3161 3163 3160 3163 3165 3166 3167 3167 3168 3169 3169 3170 3171 3171 3170 3170 3169 3167 3167 3166 3164 3162 3161
3171 3171 3171 3171 3171 3173 3171 3171 3170 3169 3168 3167 3164 3156 3152 3150 3151 3153 3156 3155 3156 3158 3159 3158 3160 3162 3163 3163 3163 3163 3163 3164 3165 3167 3166 3166 3166 3164 3163 3162 3161 3161 3159 3156
3169 3168 3169 3169 3169 3170 3170 3169 3168 3167 3167 3165 3162 3158 3151 3149 3148 3150 3152 3152 3152 3156 3159 3158 3159 3159 3158 3158 3158 3158 3158 3160 3160 3161 3160 3160 3160 3159 3158 3157 3156 3155 3153 3150
3166 3165 3166 3167 3167 3167 3168 3168 3167 3166 3165 3161 3157 3156 3149 3146 3147 3146 3150 3150 3151 3154 3157 3157 3155 3153 3153 3153 3153 3153 3154 3155 3154 3155 3154 3155 3155 3154 3153 3152 3150 3148 3148 3146
3162 3161 3161 3163 3164 3165 3166 3166 3164 3161 3156 3150 3146 3147 3145 3144 3146 3148 3149 3152 3150 3151 3153 3152 3151 3150 3149 3149 3148 3148 3149 3149 3149 3149 3149 3150 3150 3149 3149 3148 3147 3145 3141 3138
3158 3155 3157 3158 3161 3163 3162 3164 3163 3159 3152 3146 3143 3136 3140 3141 3143 3145 3147 3148 3150 3151 3153 3151 3143 3146 3147 3145 3142 3143 3144 3144 3144 3143 3145 3145 3146 3145 3145 3144 3143 3140 3135 3132
3159 3155 3156 3158 3159 3161 3161 3160 3161 3158 3158 3153 3147 3141 3141 3139 3142 3143 3144 3146 3148 3148 3148 3151 3146 3145 3142 3140 3138 3137 3139 3139 3139 3139 3141 3142 3142 3142 3141 3139 3138 3136 3132 3127
3159 3157 3156 3157 3158 3158 3158 3159 3159 3155 3157 3155 3146 3142 3140 3136 3140 3144 3144 3144 3146 3146 3143 3144 3141 3141 3138 3135 3133 3131 3134 3135 3135 3137 3138 3138 3138 3137 3137 3136 3133 3130 3128 3124
3159 3159 3157 3156 3154 3155 3155 3154 3155 3156 3155 3152 3150 3145 3140 3145 3145 3144 3145 3144 3144 3146 3138 3138 3138 3137 3134 3131 3130 3130 3129 3131 3132 3133 3134 3134 3134 3133 3132 3130 3127 3125 3122 3118
3158 3155 3153 3154 3152 3152 3152 3151 3151 3152 3153 3151 3150 3145 3143 3146 3144 3143 3142 3142 3143 3141 3140 3134 3132 3132 3131 3129 3127 3127 3127 3128 3129 3129 3129 3129 3129 3128 3126 3124 3123 3120 3116 3112
3152 3153 3152 3150 3151 3148 3148 3148 3148 3149 3150 3150 3149 3144 3142 3142 3143 3142 3141 3139 3138 3139 3139 3133 3129 3129 3128 3125 3124 3124 3125 3125 3125 3125 3125 3125 3124 3122 3121 3120 3117 3115 3111 3106
3151 3151 3151 3148 3143 3147 3147 3146 3145 3146 3146 3144 3142 3141 3142 3140 3139 3136 3134 3136 3136 3136 3134 3130 3126 3126 3125 3122 3121 3121 3122 3121 3121 3121 3121 3120 3119 3118 3117 3114 3112 3109 3105 3100
3147 3147 3149 3147 3145 3143 3144 3144 3144 3142 3141 3140 3139 3137 3137 3138 3137 3135 3134 3133 3132 3130 3129 3128 3122 3121 3121 3118 3117 3117 3117 3117 3117 3116 3116 3116 3114 3114 3112 3109 3106 3103 3099 3093
3144 3142 3143 3140 3142 3140 3136 3139 3139 3139 3138 3136 3135 3133 3136 3136 3135 3134 3133 3127 3124 3124 3124 3121 3116 3117 3115 3114 3113 3112 3112 3111 3111 3111 3111 3111 3110 3110 3108 3105 3101 3098 3093 3087
3139 3141 3141 3134 3138 3135 3128 3133 3132 3132 3132 3132 3129 3130 3131 3130 3129 3130 3123 3119 3118 3118 3119 3118 3114 3112 3110 3110 3109 3107 3106 3106 3106 3106 3105 3107 3107 3105 3104 3100 3096 3092 3087 3082
3134 3136 3138 3133 3136 3126 3126 3127 3127 3125 3124 3124 3123 3124 3124 3123 3121 3118 3115 3112 3111 3113 3114 3115 3113 3108 3105 3106 3105 3103 3102 3101 3101 3101 3100 3102 3102 3101 3098 3095 3092 3087 3082 3077
3130 3131 3132 3130 3129 3120 3121 3123 3121 3119 3117 3118 3116 3116 3117 3114 3117 3111 3109 3107 3106 3107 3108 3110 3110 3105 3101 3102 3103 3099 3098 3097 3096 3096 3097 3098 3097 3096 3094 3090 3087 3082 3077 3073
3124 3125 3127 3126 3123 3117 3116 3118 3114 3111 3111 3110 3109 3110 3109 3107 3111 3106 3105 3102 3103 3103 3103 3104 3104 3099 3098 3097 3100 3095 3093 3092 3092 3094 3094 3094 3094 3091 3089 3086 3082 3077 3073 3067
3120 3120 3119 3120 3118 3115 3115 3111 3113 3112 3113 3104 3104 3105 3104 3103 3104 3102 3099 3099 3102 3101 3098 3098 3096 3096 3095 3094 3095 3091 3089 3087 3090 3091 3091 3091 3090 3089 3086 3082 3078 3073 3068 3063
3116 3116 3114 3115 3114 3113 3113 3111 3112 3109 3105 3103 3103 3102 3100 3099 3097 3097 3097 3100 3098 3096 3095 3091 3092 3093 3091 3089 3092 3088 3086 3084 3087 3087 3088 3087 3088 3085 3081 3078 3073 3068 3063 3059
3110 3110 3109 3110 3105 3103 3103 3105 3106 3106 3104 3102 3097 3096 3095 3093 3093 3093 3093 3094 3094 3093 3093 3085 3090 3088 3087 3086 3085 3084 3082 3083 3084 3084 3085 3084 3084 3082 3077 3074 3069 3064 3058 3051
3103 3103 3099 3099 3099 3100 3103 3102 3099 3098 3098 3097 3092 3091 3089 3087 3088 3087 3087 3086 3089 3090 3085 3084 3085 3084 3082 3081 3079 3079 3080 3081 3082 3083 3083 3080 3079 3077 3074 3069 3065 3060 3054 3049
3096 3094 3092 3089 3091 3091 3091 3093 3093 3089 3087 3086 3084 3082 3082 3082 3081 3081 3080 3079 3081 3084 3080 3077 3081 3080 3078 3077 3076 3077 3079 3081 3082 3082 3081 3078 3076 3071 3068 3065 3060 3055 3050 3045
3088 3088 3086 3082 3084 3082 3080 3080 3079 3075 3075 3075 3074 3077 3079 3077 3074 3074 3074 3074 3075 3076 3072 3071 3073 3076 3075 3074 3074 3076 3078 3079 3079 3078 3077 3075 3072 3070 3066 3061 3058 3054 3047 3039